Location: Perryvale
(54.4667°N, 113.3833°W)
Time: 22:52:26
(UTC+00:00)

SR - Pass Details

Date: 27 May 2024
Orbit: 580 x 858 km, 66.7° (Epoch: 13 June)

Event Time Altitude Azimuth Distance (km) Brightness Sun altitude
Rises 04:46:48 0° 299° (WNW) 3,019 ? -6.4°
Reaches altitude 10° 04:49:54 10° 319° (NW) 2,051 ? -6.7°
Maximum altitude 04:53:00 18° 2° (N) 1,566 ? -7.0°
Drops below altitude 10° 04:55:59 10° 45° (NE) 1,963 ? -7.2°
Sets 04:58:51 0° 65° (ENE) 2,836 ? -7.5°
